| time (UTC) | temp F | wind direction | speed MPH | gust MPH | rain 1hr in | rain 24hr in | rain mn in | humidity % | barometer mb |
| 20260510061606 | 59 | 170 | 0.0 | 0.0 | 0.00 | 0.00 | 0.00 | 46 | 1014.6 |
| 20260510061106 | 60 | 170 | 0.0 | 0.0 | 0.00 | 0.00 | 0.00 | 46 | 1014.6 |
| 20260510060600 | 60 | 170 | 0.0 | 0.0 | 0.00 | 0.00 | 0.00 | 45 | 1014.6 |
| 20260510060101 | 60 | 170 | 0.0 | 0.0 | 0.00 | 0.00 | 0.00 | 45 | 1014.6 |
| 20260510055601 | 60 | 170 | 0.0 | 0.0 | 0.00 | 0.00 | 0.00 | 45 | 1014.6 |
| 20260510055056 | 60 | 170 | 0.0 | 0.0 | 0.00 | 0.00 | 0.00 | 45 | 1014.6 |
| 20260510054555 | 60 | 170 | 0.0 | 0.0 | 0.00 | 0.00 | 0.00 | 44 | 1014.6 |
| 20260510054056 | 60 | 170 | 0.0 | 0.0 | 0.00 | 0.00 | 0.00 | 44 | 1014.6 |
| 20260510053051 | 61 | 170 | 0.0 | 0.0 | 0.00 | 0.00 | 0.00 | 44 | 1014.6 |
| 20260510052037 | 61 | 170 | 0.0 | 0.0 | 0.00 | 0.00 | 0.00 | 44 | 1014.6 |
| 20260510051536 | 61 | 170 | 0.0 | 0.0 | 0.00 | 0.00 | 0.00 | 43 | 1014.6 |
| 20260510050532 | 61 | 170 | 0.0 | 0.0 | 0.00 | 0.00 | 0.00 | 43 | 1014.6 |
| 20260510045532 | 62 | 170 | 0.0 | 0.0 | 0.00 | 0.00 | 0.00 | 43 | 1014.6 |
| 20260510044527 | 62 | 170 | 0.0 | 0.0 | 0.00 | 0.00 | 0.00 | 42 | 1014.6 |
| 20260510044027 | 62 | 170 | 0.0 | 0.0 | 0.00 | 0.00 | 0.00 | 41 | 1014.6 |
| 20260510043525 | 62 | 170 | 0.0 | 0.0 | 0.00 | 0.00 | 0.00 | 41 | 1014.6 |
| 20260510042524 | 62 | 170 | 0.0 | 0.0 | 0.00 | 0.00 | 0.00 | 41 | 1014.6 |
| 20260510042019 | 63 | 170 | 0.0 | 0.0 | 0.00 | 0.00 | 0.00 | 41 | 1014.6 |
| 20260510041520 | 63 | 170 | 0.0 | 0.0 | 0.00 | 0.00 | 0.00 | 40 | 1014.6 |
| 20260510041020 | 63 | 170 | 0.0 | 0.0 | 0.00 | 0.00 | 0.00 | 40 | 1014.6 |
| 20260510040516 | 63 | 170 | 0.0 | 0.0 | 0.00 | 0.00 | 0.00 | 39 | 1014.6 |
| 20260510040016 | 63 | 170 | 0.0 | 0.0 | 0.00 | 0.00 | 0.00 | 39 | 1014.6 |
| 20260510035511 | 63 | 170 | 0.0 | 0.0 | 0.00 | 0.00 | 0.00 | 39 | 1014.6 |
| 20260510035008 | 63 | 170 | 0.0 | 0.0 | 0.00 | 0.00 | 0.00 | 38 | 1014.6 |
| 20260510034509 | 63 | 170 | 0.0 | 0.0 | 0.00 | 0.00 | 0.00 | 38 | 1014.6 |
| 20260510033503 | 64 | 170 | 0.0 | 0.0 | 0.00 | 0.00 | 0.00 | 37 | 1014.6 |
| 20260510032001 | 64 | 170 | 0.0 | 0.0 | 0.00 | 0.00 | 0.00 | 36 | 1014.6 |
| 20260510030457 | 65 | 170 | 0.0 | 0.0 | 0.00 | 0.00 | 0.00 | 35 | 1014.6 |
| 20260510025951 | 65 | 170 | 0.0 | 0.0 | 0.00 | 0.00 | 0.00 | 35 | 1014.6 |
| 20260510025452 | 65 | 170 | 0.0 | 0.0 | 0.00 | 0.00 | 0.00 | 35 | 1014.6 |
| 20260510024949 | 65 | 170 | 0.0 | 0.0 | 0.00 | 0.00 | 0.00 | 34 | 1014.6 |
| 20260510024450 | 65 | 170 | 0.0 | 0.0 | 0.00 | 0.00 | 0.00 | 34 | 1014.6 |
| 20260510023950 | 66 | 170 | 0.0 | 0.0 | 0.00 | 0.00 | 0.00 | 34 | 1014.6 |
| 20260510023448 | 66 | 170 | 0.0 | 0.0 | 0.00 | 0.00 | 0.00 | 33 | 1014.6 |
| 20260510022447 | 66 | 170 | 0.0 | 0.0 | 0.00 | 0.00 | 0.00 | 33 | 1014.6 |
| 20260510021443 | 67 | 170 | 0.0 | 0.0 | 0.00 | 0.00 | 0.00 | 33 | 1013.6 |
| 20260510015942 | 67 | 249 | 0.0 | 3.0 | 0.00 | 0.00 | 0.00 | 32 | 1013.6 |
| 20260510015442 | 67 | 249 | 0.0 | 0.0 | 0.00 | 0.00 | 0.00 | 32 | 1013.6 |
| 20260510014938 | 67 | 249 | 0.0 | 0.0 | 0.00 | 0.00 | 0.00 | 30 | 1013.6 |
| 20260510014438 | 67 | 249 | 0.0 | 0.0 | 0.00 | 0.00 | 0.00 | 29 | 1013.6 |
| 20260510013937 | 67 | 249 | 0.0 | 0.0 | 0.00 | 0.00 | 0.00 | 28 | 1013.6 |
| 20260510013433 | 67 | 249 | 0.0 | 0.0 | 0.00 | 0.00 | 0.00 | 27 | 1012.6 |
| 20260510012934 | 68 | 249 | 0.0 | 0.0 | 0.00 | 0.00 | 0.00 | 27 | 1012.6 |
| 20260510012434 | 68 | 249 | 0.0 | 0.0 | 0.00 | 0.00 | 0.00 | 26 | 1012.6 |
| 20260510011931 | 68 | 249 | 0.0 | 0.0 | 0.00 | 0.00 | 0.00 | 26 | 1012.6 |
| 20260510011431 | 68 | 249 | 0.0 | 0.0 | 0.00 | 0.00 | 0.00 | 25 | 1012.6 |
| 20260510010932 | 69 | 249 | 0.0 | 0.0 | 0.00 | 0.00 | 0.00 | 24 | 1012.6 |
| 20260510005427 | 70 | 249 | 0.0 | 0.0 | 0.00 | 0.00 | 0.00 | 23 | 1012.6 |
| 20260510004922 | 70 | 249 | 0.0 | 0.0 | 0.00 | 0.00 | 0.00 | 23 | 1012.6 |
| 20260510004422 | 71 | 249 | 0.0 | 0.0 | 0.00 | 0.00 | 0.00 | 22 | 1012.6 |
| 20260510003920 | 71 | 249 | 0.0 | 0.0 | 0.00 | 0.00 | 0.00 | 22 | 1012.6 |
| 20260510003416 | 71 | 249 | 0.0 | 0.0 | 0.00 | 0.00 | 0.00 | 22 | 1012.6 |
| 20260510002916 | 72 | 249 | 0.0 | 0.0 | 0.00 | 0.00 | 0.00 | 22 | 1012.6 |
| 20260510002416 | 72 | 249 | 0.0 | 0.0 | 0.00 | 0.00 | 0.00 | 22 | 1012.6 |
| 20260510000911 | 73 | 249 | 0.0 | 0.0 | 0.00 | 0.00 | 0.00 | 21 | 1011.6 |
| 20260510000404 | 73 | 249 | 0.0 | 0.0 | 0.00 | 0.00 | 0.00 | 21 | 1011.6 |
| 20260509235404 | 74 | 249 | 0.0 | 0.0 | 0.00 | 0.00 | 0.00 | 18 | 1011.6 |
| 20260509234400 | 74 | 249 | 0.0 | 0.0 | 0.00 | 0.00 | 0.00 | 18 | 1011.6 |
| 20260509232854 | 75 | 249 | 0.0 | 0.0 | 0.00 | 0.00 | 0.00 | 18 | 1011.6 |
| 20260509231350 | 76 | 249 | 0.0 | 0.0 | 0.00 | 0.00 | 0.00 | 15 | 1011.6 |
| 20260509225845 | 76 | 249 | 0.0 | 0.0 | 0.00 | 0.00 | 0.00 | 15 | 1011.6 |
| 20260509222828 | 78 | 249 | 0.0 | 4.0 | 0.00 | 0.00 | 0.00 | 15 | 1011.6 |
| 20260509222328 | 79 | 267 | 0.0 | 0.0 | 0.00 | 0.00 | 0.00 | 15 | 1011.6 |
| 20260509221824 | 79 | 267 | 0.0 | 3.0 | 0.00 | 0.00 | 0.00 | 15 | 1011.6 |
| 20260509221324 | 78 | 267 | 0.0 | 6.0 | 0.00 | 0.00 | 0.00 | 15 | 1011.6 |
| 20260509220825 | 78 | 267 | 3.0 | 3.0 | 0.00 | 0.00 | 0.00 | 15 | 1011.6 |
| 20260509220320 | 78 | 318 | 0.0 | 4.0 | 0.00 | 0.00 | 0.00 | 15 | 1011.6 |
| 20260509215821 | 79 | 318 | 0.0 | 4.0 | 0.00 | 0.00 | 0.00 | 15 | 1011.6 |
| 20260509214817 | 79 | 318 | 0.0 | 3.0 | 0.00 | 0.00 | 0.00 | 14 | 1011.6 |
| 20260509213812 | 79 | 318 | 0.0 | 4.0 | 0.00 | 0.00 | 0.00 | 14 | 1011.6 |
| 20260509213307 | 80 | 318 | 0.0 | 4.0 | 0.00 | 0.00 | 0.00 | 14 | 1011.6 |
| 20260509211305 | 79 | 309 | 4.0 | 5.0 | 0.00 | 0.00 | 0.00 | 15 | 1011.6 |
| 20260509210803 | 79 | 341 | 4.0 | 4.0 | 0.00 | 0.00 | 0.00 | 15 | 1011.6 |
| 20260509205254 | 79 | 149 | 3.0 | 4.0 | 0.00 | 0.00 | 0.00 | 15 | 1011.6 |
| 20260509202736 | 79 | 328 | 4.0 | 6.0 | 0.00 | 0.00 | 0.00 | 15 | 1011.6 |
| 20260509202234 | 79 | 347 | 4.0 | 5.0 | 0.00 | 0.00 | 0.00 | 15 | 1011.6 |
| 20260509201729 | 80 | 327 | 3.0 | 6.0 | 0.00 | 0.00 | 0.00 | 14 | 1011.6 |
| 20260509201229 | 81 | 139 | 3.0 | 3.0 | 0.00 | 0.00 | 0.00 | 14 | 1011.6 |
| 20260509200225 | 81 | 198 | 0.0 | 6.0 | 0.00 | 0.00 | 0.00 | 14 | 1011.6 |
| 20260509195724 | 81 | 264 | 4.0 | 6.0 | 0.00 | 0.00 | 0.00 | 14 | 1011.6 |
| 20260509195220 | 80 | 250 | 4.0 | 5.0 | 0.00 | 0.00 | 0.00 | 14 | 1011.6 |
| 20260509194715 | 79 | 351 | 0.0 | 4.0 | 0.00 | 0.00 | 0.00 | 15 | 1011.6 |
| 20260509194215 | 79 | 351 | 0.0 | 5.0 | 0.00 | 0.00 | 0.00 | 15 | 1011.6 |
| 20260509193716 | 79 | 186 | 3.0 | 4.0 | 0.00 | 0.00 | 0.00 | 15 | 1011.6 |
| 20260509193204 | 79 | 251 | 0.0 | 5.0 | 0.00 | 0.00 | 0.00 | 15 | 1011.6 |
| 20260509192704 | 78 | 251 | 4.0 | 4.0 | 0.00 | 0.00 | 0.00 | 15 | 1011.6 |
| 20260509192203 | 78 | 329 | 4.0 | 4.0 | 0.00 | 0.00 | 0.00 | 15 | 1011.6 |
| 20260509191658 | 78 | 329 | 3.0 | 4.0 | 0.00 | 0.00 | 0.00 | 15 | 1011.6 |
| 20260509191158 | 78 | 303 | 0.0 | 4.0 | 0.00 | 0.00 | 0.00 | 15 | 1011.6 |
| 20260509190659 | 78 | 250 | 3.0 | 5.0 | 0.00 | 0.00 | 0.00 | 15 | 1011.6 |
| 20260509190154 | 78 | 234 | 4.0 | 7.0 | 0.00 | 0.00 | 0.00 | 15 | 1011.6 |
| 20260509185655 | 78 | 328 | 4.0 | 6.0 | 0.00 | 0.00 | 0.00 | 15 | 1011.6 |
| 20260509185155 | 78 | 259 | 4.0 | 6.0 | 0.00 | 0.00 | 0.00 | 15 | 1012.6 |
| 20260509184650 | 78 | 258 | 4.0 | 5.0 | 0.00 | 0.00 | 0.00 | 15 | 1012.6 |
| 20260509184150 | 78 | 229 | 4.0 | 6.0 | 0.00 | 0.00 | 0.00 | 15 | 1012.6 |
| 20260509183650 | 78 | 246 | 3.0 | 4.0 | 0.00 | 0.00 | 0.00 | 15 | 1012.6 |
| 20260509182648 | 77 | 318 | 0.0 | 5.0 | 0.00 | 0.00 | 0.00 | 15 | 1012.6 |
| 20260509182149 | 77 | 166 | 0.0 | 5.0 | 0.00 | 0.00 | 0.00 | 15 | 1012.6 |
| 20260509181646 | 76 | 48 | 3.0 | 5.0 | 0.00 | 0.00 | 0.00 | 15 | 1012.6 |
| 20260509174607 | 77 | 259 | 3.0 | 4.0 | 0.00 | 0.00 | 0.00 | 15 | 1012.6 |
| 20260509174108 | 76 | 235 | 0.0 | 5.0 | 0.00 | 0.00 | 0.00 | 15 | 1012.6 |
| 20260509173104 | 76 | 269 | 4.0 | 5.0 | 0.00 | 0.00 | 0.00 | 15 | 1012.6 |
| 20260509172555 | 75 | 309 | 0.0 | 4.0 | 0.00 | 0.00 | 0.00 | 15 | 1012.6 |
| 20260509172055 | 74 | 267 | 3.0 | 5.0 | 0.00 | 0.00 | 0.00 | 15 | 1012.6 |
| 20260509171553 | 74 | 309 | 3.0 | 5.0 | 0.00 | 0.00 | 0.00 | 16 | 1012.6 |
| 20260509171053 | 74 | 258 | 3.0 | 6.0 | 0.00 | 0.00 | 0.00 | 16 | 1012.6 |
| 20260509170553 | 74 | 237 | 3.0 | 8.0 | 0.00 | 0.00 | 0.00 | 16 | 1012.6 |
| 20260509165543 | 73 | 127 | 4.0 | 5.0 | 0.00 | 0.00 | 0.00 | 16 | 1012.6 |
| 20260509164537 | 73 | 122 | 3.0 | 6.0 | 0.00 | 0.00 | 0.00 | 16 | 1012.6 |
| 20260509164036 | 74 | 330 | 5.0 | 6.0 | 0.00 | 0.00 | 0.00 | 16 | 1012.6 |
| 20260509163536 | 73 | 318 | 4.0 | 7.0 | 0.00 | 0.00 | 0.00 | 16 | 1012.6 |
| 20260509163034 | 74 | 241 | 6.0 | 10.0 | 0.00 | 0.00 | 0.00 | 16 | 1012.6 |
| 20260509162533 | 74 | 332 | 5.0 | 6.0 | 0.00 | 0.00 | 0.00 | 16 | 1012.6 |
| 20260509162033 | 73 | 201 | 3.0 | 5.0 | 0.00 | 0.00 | 0.00 | 18 | 1012.6 |
| 20260509161528 | 73 | 133 | 3.0 | 7.0 | 0.00 | 0.00 | 0.00 | 18 | 1012.6 |
| 20260509161028 | 72 | 248 | 3.0 | 7.0 | 0.00 | 0.00 | 0.00 | 18 | 1012.6 |
| 20260509160529 | 72 | 154 | 5.0 | 5.0 | 0.00 | 0.00 | 0.00 | 19 | 1013.6 |
| 20260509155027 | 71 | 247 | 0.0 | 7.0 | 0.00 | 0.00 | 0.00 | 19 | 1013.6 |
| 20260509154523 | 71 | 270 | 3.0 | 6.0 | 0.00 | 0.00 | 0.00 | 21 | 1013.6 |
| 20260509153524 | 70 | 208 | 0.0 | 10.0 | 0.00 | 0.00 | 0.00 | 22 | 1012.6 |
| 20260509153021 | 70 | 243 | 4.0 | 8.0 | 0.00 | 0.00 | 0.00 | 22 | 1012.6 |
| 20260509152522 | 69 | 147 | 4.0 | 5.0 | 0.00 | 0.00 | 0.00 | 22 | 1012.6 |
| 20260509152022 | 68 | 256 | 3.0 | 5.0 | 0.00 | 0.00 | 0.00 | 22 | 1012.6 |
| 20260509151518 | 68 | 256 | 4.0 | 6.0 | 0.00 | 0.00 | 0.00 | 22 | 1012.6 |
| 20260509151018 | 69 | 233 | 4.0 | 4.0 | 0.00 | 0.00 | 0.00 | 22 | 1012.6 |
| 20260509150509 | 69 | 243 | 4.0 | 7.0 | 0.00 | 0.00 | 0.00 | 22 | 1012.6 |
| 20260509145904 | 69 | 143 | 3.0 | 7.0 | 0.00 | 0.00 | 0.00 | 23 | 1012.6 |
| 20260509145405 | 69 | 253 | 5.0 | 5.0 | 0.00 | 0.00 | 0.00 | 24 | 1012.6 |
| 20260509144905 | 67 | 219 | 3.0 | 4.0 | 0.00 | 0.00 | 0.00 | 27 | 1012.6 |
| 20260509142354 | 66 | 286 | 4.0 | 6.0 | 0.00 | 0.00 | 0.00 | 33 | 1012.6 |
| 20260509140826 | 64 | 247 | 3.0 | 7.0 | 0.00 | 0.00 | 0.00 | 34 | 1012.6 |
| 20260509140324 | 64 | 262 | 4.0 | 6.0 | 0.00 | 0.00 | 0.00 | 34 | 1012.6 |
| 20260509135319 | 64 | 257 | 0.0 | 5.0 | 0.00 | 0.00 | 0.00 | 35 | 1012.6 |
| 20260509134818 | 64 | 256 | 4.0 | 4.0 | 0.00 | 0.00 | 0.00 | 36 | 1012.6 |
| 20260509133307 | 63 | 256 | 3.0 | 5.0 | 0.00 | 0.00 | 0.00 | 39 | 1012.6 |
| 20260509131258 | 62 | 246 | 3.0 | 5.0 | 0.00 | 0.00 | 0.00 | 46 | 1012.6 |
| 20260509130740 | 62 | 187 | 0.0 | 3.0 | 0.00 | 0.00 | 0.00 | 47 | 1012.6 |
| 20260509125738 | 61 | 187 | 0.0 | 4.0 | 0.00 | 0.00 | 0.00 | 48 | 1012.6 |
| 20260509124739 | 61 | 258 | 0.0 | 5.0 | 0.00 | 0.00 | 0.00 | 49 | 1012.6 |
| 20260509123736 | 61 | 246 | 0.0 | 5.0 | 0.00 | 0.00 | 0.00 | 50 | 1012.6 |
| 20260509123231 | 60 | 230 | 0.0 | 4.0 | 0.00 | 0.00 | 0.00 | 50 | 1012.6 |
| 20260509122727 | 60 | 230 | 0.0 | 0.0 | 0.00 | 0.00 | 0.00 | 51 | 1012.6 |
| 20260509122223 | 60 | 230 | 0.0 | 3.0 | 0.00 | 0.00 | 0.00 | 51 | 1012.6 |
| 20260509121721 | 60 | 230 | 0.0 | 4.0 | 0.00 | 0.00 | 0.00 | 51 | 1012.6 |
| 20260509115712 | 59 | 249 | 0.0 | 5.0 | 0.00 | 0.00 | 0.00 | 51 | 1012.6 |
| 20260509115213 | 59 | 249 | 4.0 | 5.0 | 0.00 | 0.00 | 0.00 | 51 | 1012.6 |
| 20260509114709 | 59 | 249 | 0.0 | 5.0 | 0.00 | 0.00 | 0.00 | 50 | 1012.6 |
| 20260509114206 | 59 | 249 | 3.0 | 0.0 | 0.00 | 0.00 | 0.00 | 50 | 1012.6 |
| 20260509111650 | 59 | 249 | 0.0 | 0.0 | 0.00 | 0.00 | 0.00 | 50 | 1011.6 |
| 20260509110142 | 58 | 249 | 0.0 | 0.0 | 0.00 | 0.00 | 0.00 | 49 | 1011.6 |
| 20260509105639 | 58 | 249 | 0.0 | 0.0 | 0.00 | 0.00 | 0.00 | 49 | 1011.6 |
| 20260509103626 | 58 | 249 | 0.0 | 0.0 | 0.00 | 0.00 | 0.00 | 49 | 1011.6 |
| 20260509103126 | 58 | 249 | 0.0 | 0.0 | 0.00 | 0.00 | 0.00 | 48 | 1011.6 |
| 20260509102122 | 58 | 249 | 3.0 | 4.0 | 0.00 | 0.00 | 0.00 | 48 | 1011.6 |
| 20260509100619 | 58 | 247 | 0.0 | 5.0 | 0.00 | 0.00 | 0.00 | 47 | 1010.6 |
| 20260509100120 | 58 | 166 | 0.0 | 0.0 | 0.00 | 0.00 | 0.00 | 47 | 1010.6 |
| 20260509095115 | 58 | 166 | 0.0 | 0.0 | 0.00 | 0.00 | 0.00 | 47 | 1011.6 |
| 20260509094113 | 57 | 166 | 0.0 | 0.0 | 0.00 | 0.00 | 0.00 | 47 | 1011.6 |
| 20260509093114 | 57 | 166 | 0.0 | 0.0 | 0.00 | 0.00 | 0.00 | 47 | 1011.6 |
| 20260509091107 | 57 | 166 | 3.0 | 0.0 | 0.00 | 0.00 | 0.00 | 45 | 1011.6 |
| 20260509090609 | 57 | 166 | 0.0 | 0.0 | 0.00 | 0.00 | 0.00 | 45 | 1011.6 |
| 20260509085605 | 57 | 166 | 0.0 | 0.0 | 0.00 | 0.00 | 0.00 | 45 | 1011.6 |
| 20260509085105 | 56 | 166 | 0.0 | 0.0 | 0.00 | 0.00 | 0.00 | 45 | 1011.6 |
| 20260509084606 | 56 | 166 | 0.0 | 0.0 | 0.00 | 0.00 | 0.00 | 45 | 1011.6 |
| 20260509084102 | 56 | 166 | 0.0 | 0.0 | 0.00 | 0.00 | 0.00 | 45 | 1011.6 |
| 20260509082557 | 57 | 166 | 0.0 | 4.0 | 0.00 | 0.00 | 0.00 | 43 | 1011.6 |
| 20260509082057 | 57 | 166 | 0.0 | 0.0 | 0.00 | 0.00 | 0.00 | 44 | 1012.6 |
| 20260509081558 | 57 | 166 | 0.0 | 3.0 | 0.00 | 0.00 | 0.00 | 44 | 1012.6 |
| 20260509081053 | 57 | 166 | 0.0 | 5.0 | 0.00 | 0.00 | 0.00 | 44 | 1012.6 |
| 20260509075548 | 57 | 166 | 0.0 | 0.0 | 0.00 | 0.00 | 0.00 | 44 | 1011.6 |
| 20260509074038 | 56 | 166 | 0.0 | 0.0 | 0.00 | 0.00 | 0.00 | 43 | 1012.6 |
| 20260509073538 | 56 | 166 | 0.0 | 0.0 | 0.00 | 0.00 | 0.00 | 43 | 1011.6 |
| 20260509073036 | 56 | 166 | 0.0 | 0.0 | 0.00 | 0.00 | 0.00 | 43 | 1011.6 |
| 20260509072533 | 56 | 166 | 0.0 | 0.0 | 0.00 | 0.00 | 0.00 | 43 | 1011.6 |
| 20260509072034 | 56 | 166 | 0.0 | 0.0 | 0.00 | 0.00 | 0.00 | 43 | 1011.6 |
| 20260509071533 | 56 | 166 | 0.0 | 0.0 | 0.00 | 0.00 | 0.00 | 43 | 1011.6 |
| 20260509071028 | 56 | 166 | 0.0 | 0.0 | 0.00 | 0.00 | 0.00 | 43 | 1011.6 |
| 20260509070529 | 56 | 166 | 0.0 | 0.0 | 0.00 | 0.00 | 0.00 | 43 | 1011.6 |
| 20260509070029 | 55 | 166 | 0.0 | 0.0 | 0.00 | 0.00 | 0.00 | 43 | 1011.6 |
| 20260509063021 | 54 | 166 | 0.0 | 0.0 | 0.00 | 0.00 | 0.00 | 42 | 1012.6 |
| 20260509062019 | 53 | 166 | 0.0 | 0.0 | 0.00 | 0.00 | 0.00 | 41 | 1011.6 |